{"data":{"norad_id":68067,"intl_designator":"2026-041AD","name":"STARLINK-36929","alt_names":[],"object_type":"PAYLOAD","status":"ACTIVE","operator":null,"country":"US","launch_date":"2026-03-02","launch_site_code":"AFETR","launch_vehicle":null,"mission":null,"orbit_class":"UNKNOWN","rcs_meters":null,"size_class":null,"mass_kg":null,"dimensions":null,"purposes":["comms"],"wikipedia_slug":null,"has_3d_model":false,"image_url":null,"decayed_at":null,"tle_current":{"epoch":"2026-05-25T03:03:15.096384Z","epoch_age_seconds":67227,"freshness":"FRESH","line1":"1 68067U 26041AD  26145.12725806  .00009597  00000+0  29481-3 0  9995","line2":"2 68067  53.1599  53.2503 0000965  99.5984 260.5127 15.34399648 13114","mean_motion":15.34399648,"eccentricity":9.65e-5,"inclination_deg":53.1599,"raan_deg":53.2503,"arg_perigee_deg":99.5984,"mean_anomaly_deg":260.5127,"bstar":0.00029481,"rev_number":1311,"period_min":93.847779610544,"perigee_km":462.04414524135,"apogee_km":463.36442760963,"semimajor_km":6840.8412864255,"source":"CELESTRAK","updated_at":"2026-05-25T13:38:21.816406Z"}}}